Theta_e
308 308 308 308 308 308 308 308 308 309 309 310 310 311 311 312 312 312 313 316 314 314 313 312 313 315 317 319 318 318 319 319 321 321 320 319 319 318 318 318 318 319 319 323 324
308 307 307 307 307 307 308 308 308 309 309 310 310 311 311 312 313 314 314 313 313 313 312 312 315 314 318 319 319 319 319 320 319 318 319 318 319 317 317 317 318 319 318 324 324
307 307 307 307 307 307 308 308 308 309 309 310 310 311 311 313 315 317 314 311 312 312 312 313 315 315 317 318 319 320 319 317 318 317 318 319 318 318 317 316 318 318 318 322 324
307 307 307 307 307 307 308 308 308 309 309 309 310 310 311 314 319 315 313 312 312 311 312 312 315 315 316 317 318 317 318 317 318 317 317 318 318 318 317 318 318 319 319 318 319
307 307 307 307 307 307 307 308 308 308 308 309 309 310 312 315 318 313 313 312 312 311 311 313 315 315 316 316 316 315 316 315 317 316 316 316 316 317 318 318 318 318 318 318 318
307 307 307 307 307 307 308 308 308 308 308 308 309 310 312 316 315 313 310 311 312 311 312 314 314 315 316 316 316 316 316 316 316 317 316 316 317 317 318 317 318 318 317 317 317
307 307 308 308 308 308 308 309 309 309 309 309 309 309 311 315 313 315 311 311 311 313 313 312 313 314 316 316 316 316 316 316 316 316 316 315 315 314 316 317 317 318 317 316 317
308 308 309 309 309 309 309 309 309 309 309 309 309 309 313 311 311 316 313 312 312 312 313 312 312 316 317 316 316 316 316 317 316 316 316 316 314 316 317 316 316 316 317 317 316
312 311 310 310 310 310 310 310 310 310 309 309 309 310 313 310 312 315 314 313 312 312 312 313 315 316 315 316 316 316 314 314 317 316 316 315 316 317 317 316 316 316 316 316 317
319 318 315 313 313 312 311 310 310 310 310 310 309 310 310 313 312 315 314 313 313 312 313 314 315 316 315 314 314 317 316 315 318 316 315 315 314 315 317 317 317 317 318 317 317
321 321 320 319 319 318 317 312 309 308 309 312 312 310 310 311 312 314 314 312 313 314 314 315 313 313 314 314 315 316 315 316 316 314 316 315 314 314 316 317 317 318 318 317 317
320 321 321 321 322 322 322 312 309 312 313 311 309 310 310 312 314 314 313 314 314 315 316 314 313 314 316 316 316 316 315 314 315 315 314 314 313 313 315 315 317 317 317 317 317
319 319 319 319 322 321 322 319 316 317 314 313 310 309 309 310 314 314 314 315 316 316 315 316 315 315 316 315 316 315 315 314 315 315 314 314 313 315 315 315 316 317 317 317 317
315 319 319 320 320 320 320 319 320 320 321 317 312 312 309 312 313 315 314 315 314 315 315 315 314 314 314 315 314 314 315 315 315 315 313 316 313 314 313 312 314 317 317 317 317
313 313 317 318 320 319 321 319 319 319 323 317 311 312 311 311 311 313 314 314 315 315 314 314 313 314 315 315 314 315 315 316 316 316 316 315 314 312 313 313 314 316 318 318 318
311 313 312 317 319 320 320 320 319 321 322 317 314 314 312 311 312 312 312 313 313 315 314 314 312 314 314 313 314 314 316 316 316 315 314 314 313 311 312 314 315 317 318 318 317
308 311 312 313 317 319 319 318 320 321 318 318 316 315 315 313 313 313 313 313 313 314 314 314 313 313 313 314 313 315 315 313 316 316 312 314 312 314 314 313 314 315 316 316 317
299 307 311 315 312 317 317 318 319 319 320 316 316 316 316 314 313 313 314 313 312 312 312 313 315 313 312 314 314 313 313 314 315 318 315 310 312 314 314 316 316 316 316 316 316
297 299 307 312 314 315 315 314 318 318 318 317 315 316 317 315 314 313 313 314 314 312 313 313 314 313 312 313 314 314 314 315 314 306 311 312 313 313 314 313 314 315 315 314 316
299 297 299 309 312 314 315 314 315 315 315 317 319 318 318 315 314 313 314 314 314 314 313 314 313 312 310 311 312 313 313 313 312 312 312 311 311 312 314 314 312 315 317 317 316
299 299 300 301 311 312 313 314 313 313 315 317 318 319 318 318 314 314 315 313 313 313 313 313 314 312 311 311 312 312 312 313 313 312 314 313 311 313 314 314 314 315 316 316 315
300 300 300 299 310 311 312 311 311 312 314 315 315 316 318 318 317 317 316 316 312 312 313 313 314 312 312 311 310 311 311 312 313 314 311 313 314 313 312 314 316 316 315 316 315
299 301 299 305 307 309 309 310 311 312 312 313 315 315 315 317 318 317 316 315 312 315 316 314 315 312 314 313 310 312 312 312 312 310 313 311 313 311 312 313 315 316 315 316 316
299 301 302 303 305 306 308 308 309 309 311 312 313 313 314 314 316 316 316 315 313 314 314 314 314 315 315 318 316 313 312 312 312 311 313 313 314 313 312 312 313 315 316 316 316
298 300 301 301 301 305 306 306 307 309 309 309 312 313 313 314 314 314 314 312 312 312 313 313 314 313 314 315 315 316 316 315 315 314 314 313 313 313 313 312 314 316 315 316 316
299 299 300 301 302 302 305 304 305 306 307 308 309 311 311 313 312 313 312 312 314 311 312 312 314 313 313 314 315 315 315 314 313 313 313 314 314 313 313 314 314 314 315 315 315
298 299 299 300 301 302 302 303 303 304 305 305 306 306 306 307 307 306 307 309 310 311 313 312 311 312 314 311 312 315 313 313 314 314 314 314 313 312 313 314 315 315 315 314 315
Wind_Speed
15 13 12 12 10 9 9 8 8 7 6 6 6 5 4 4 4 5 5 8 6 8 8 6 6 6 7 2 4 2 2 6 7 3 1 12 6 3 4 6 4 2 1 5 14
16 13 11 11 11 10 9 8 7 6 6 6 5 5 4 3 4 4 5 9 8 8 8 7 4 6 5 4 4 4 3 7 8 9 5 10 9 12 4 8 7 8 8 12 17
15 14 12 10 9 8 8 7 7 7 6 5 4 3 3 4 4 5 10 9 8 9 9 11 7 5 5 4 5 5 3 6 8 9 5 3 7 3 7 5 12 14 16 17 17
14 14 13 11 9 8 8 8 7 6 5 4 4 3 4 7 0 3 10 8 8 9 10 8 6 4 3 3 4 2 4 3 4 2 1 2 3 6 12 7 5 8 12 17 20
14 12 12 12 11 9 9 8 8 6 5 5 5 5 6 3 5 2 7 8 9 9 10 7 7 7 3 5 3 4 2 2 2 1 2 5 6 6 12 16 15 11 9 16 17
13 12 11 10 10 10 9 7 6 6 6 5 5 5 7 6 5 5 6 8 10 10 10 10 3 6 4 3 4 5 4 3 2 4 3 2 6 5 5 12 15 17 17 17 19
13 12 11 10 9 8 7 7 7 6 6 5 5 6 7 6 6 8 7 7 9 10 8 12 7 4 4 3 1 1 1 4 8 7 2 1 7 10 19 11 11 17 18 17 20
13 13 13 11 10 9 9 9 8 6 5 4 4 4 3 6 7 9 8 6 6 8 8 8 8 7 3 5 3 3 1 2 1 11 3 3 7 7 5 21 15 15 17 21 22
12 12 11 11 10 9 8 8 7 6 5 3 3 4 3 5 9 11 11 5 7 6 7 9 9 3 6 3 3 4 3 7 4 9 3 6 6 3 2 5 11 17 19 22 23
11 10 10 9 8 7 7 6 6 7 5 3 4 3 3 4 9 12 11 11 6 10 9 4 4 3 2 4 4 3 4 5 2 5 2 5 10 15 18 11 15 17 18 20 23
12 9 9 8 7 6 5 6 4 3 9 4 6 4 3 4 8 10 13 11 8 6 5 4 3 6 9 9 6 4 7 6 4 3 1 7 12 11 19 19 19 23 26 27 30
11 10 9 7 7 7 5 3 5 5 4 9 9 6 4 8 4 10 15 8 7 5 5 3 5 8 3 5 3 1 6 7 6 6 1 8 13 10 14 18 27 28 29 30 29
15 15 14 11 10 8 6 4 5 3 2 3 8 8 6 9 2 11 17 6 5 6 7 5 1 5 5 2 2 4 6 7 5 3 6 4 10 7 10 24 27 30 33 32 31
10 11 13 14 10 10 8 7 3 2 1 7 7 6 8 9 4 10 17 6 2 6 8 6 4 4 4 5 6 5 4 6 4 4 3 3 6 4 10 8 10 24 22 22 21
14 10 6 15 8 10 9 12 8 3 3 5 3 5 11 6 13 6 16 6 6 5 5 4 6 5 4 5 6 2 3 3 3 3 5 4 2 8 7 7 7 14 20 17 10
17 15 12 15 13 14 13 14 12 2 7 4 5 5 5 3 2 5 5 4 1 3 1 2 1 2 3 4 3 7 4 3 2 2 5 10 9 4 6 6 3 3 4 3 3
10 13 19 19 7 10 15 16 3 5 2 6 4 5 7 6 5 5 6 6 6 4 6 6 5 3 3 5 5 2 4 1 2 0 7 3 5 11 8 10 5 6 10 7 4
8 14 16 17 16 9 20 3 5 6 9 5 3 6 7 6 5 5 7 6 10 5 1 8 4 10 7 7 8 9 7 5 6 4 3 6 7 6 9 7 8 9 14 10 11
4 8 13 16 15 17 14 2 4 6 8 8 7 5 5 6 2 6 5 6 7 12 7 5 6 2 4 2 6 5 7 3 4 2 3 5 7 7 6 7 9 13 15 14 9
4 4 10 15 15 18 4 10 7 7 2 7 13 9 8 9 5 8 8 5 8 9 16 2 5 3 3 3 4 3 1 3 2 2 4 7 7 8 2 8 10 4 3 3 7
1 2 6 15 16 8 5 6 8 5 10 10 10 8 7 8 8 6 1 4 1 3 7 4 4 1 3 6 8 3 4 3 3 5 5 5 7 3 2 6 8 6 6 3 4
2 2 4 18 8 5 5 7 3 3 6 3 2 6 12 8 9 5 6 1 9 4 1 2 2 5 7 3 3 2 6 7 4 3 3 2 15 2 7 7 10 4 6 14 9
4 3 2 18 7 9 7 14 5 6 7 6 4 5 2 5 5 7 8 9 16 7 4 3 2 2 3 1 3 3 4 5 6 2 7 6 11 6 3 8 4 1 3 5 5
5 3 4 15 15 6 11 13 15 13 12 11 4 11 6 9 7 4 5 5 12 3 16 9 4 6 6 5 4 3 3 4 6 3 16 13 21 21 9 8 10 20 13 10 11
10 4 8 5 9 9 5 8 16 13 12 10 7 11 11 10 12 10 6 4 5 19 8 6 7 9 11 13 11 9 8 13 14 14 8 19 16 30 16 13 17 22 24 26 28
9 4 4 5 9 12 10 7 10 17 9 14 12 9 10 11 8 3 7 6 5 3 6 6 3 8 9 12 12 15 15 18 20 23 21 28 26 29 34 29 28 30 23 28 27
21 13 4 6 3 7 14 10 6 3 13 12 12 8 8 6 4 11 8 7 4 2 4 5 4 4 11 4 6 9 20 16 20 21 21 20 24 11 13 15 24 24 29 34 34
Wind_Direction
188 192 192 189 186 203 205 204 205 204 207 211 205 208 212 205 193 174 167 206 204 186 172 160 156 155 145 192 180 172 321 278 259 127 108 131 162 151 176 117 144 178 186 110 178
186 188 194 196 191 194 201 210 208 209 213 218 209 206 212 192 189 168 221 213 198 183 165 141 136 152 169 171 192 199 168 267 9 29 12 147 209 154 159 196 194 190 224 151 186
189 184 188 198 199 195 201 205 208 214 216 217 213 209 206 172 125 214 224 206 197 188 178 161 157 167 239 186 194 208 214 23 63 54 15 171 212 192 174 253 207 207 213 179 196
189 189 183 186 195 201 197 204 207 217 221 218 217 199 193 172 218 244 209 201 199 190 169 160 158 181 243 197 172 295 221 6 28 48 16 318 306 218 221 218 168 205 217 208 206
188 191 189 185 186 197 200 203 198 208 218 212 213 190 172 192 244 251 196 194 195 186 162 154 190 224 200 196 121 233 114 61 51 11 269 300 267 258 261 244 244 239 212 211 219
186 190 194 189 188 192 198 202 204 206 209 210 218 192 185 238 235 202 186 185 189 181 176 169 206 230 326 81 202 359 39 213 181 223 244 282 278 240 263 246 234 242 231 209 229
186 187 192 195 195 198 199 203 204 204 209 206 206 198 201 224 217 188 179 181 182 168 177 188 190 150 140 126 205 67 259 203 216 215 237 244 281 239 240 233 232 232 236 234 223
190 192 191 195 203 208 208 208 214 207 213 207 210 184 240 224 210 188 177 172 172 184 185 187 177 162 82 133 148 224 179 237 148 147 190 162 273 299 206 218 227 243 239 239 236
189 195 195 195 199 205 214 218 217 215 218 219 217 181 228 197 190 185 179 168 158 172 163 158 148 146 133 205 171 201 257 214 164 193 138 192 279 78 169 211 239 250 246 242 242
193 190 194 189 196 201 210 216 221 224 211 204 222 195 214 168 198 184 175 159 149 147 120 132 177 167 227 187 196 252 222 258 224 189 263 240 257 279 276 240 237 250 251 247 244
194 194 187 189 186 185 179 174 178 202 200 210 164 125 167 192 170 179 177 168 138 167 155 181 207 197 204 224 257 24 321 332 56 120 160 241 260 261 269 262 247 247 248 250 251
197 207 206 198 180 166 153 184 179 148 175 225 214 197 170 162 148 191 173 166 176 184 178 121 226 236 80 32 199 176 290 284 299 103 134 275 278 265 267 256 248 254 255 254 257
215 234 229 220 205 191 156 154 132 138 214 215 209 201 197 184 174 192 182 194 195 201 178 203 136 184 121 113 147 231 239 265 277 358 223 288 279 237 252 250 255 251 255 258 256
264 218 222 217 232 232 225 188 165 103 223 184 197 187 188 151 184 168 177 171 197 217 166 225 165 134 155 226 182 254 271 222 317 21 250 34 288 290 297 283 230 250 254 262 267
252 238 231 200 193 195 207 189 169 171 225 89 136 167 165 180 146 175 172 182 180 194 135 195 156 167 179 170 180 199 6 120 108 241 316 204 243 269 247 267 251 265 279 272 274
239 229 237 206 191 196 180 170 155 141 232 134 123 153 133 166 92 110 162 138 235 162 29 39 87 179 172 59 12 134 98 117 143 195 263 206 210 227 232 239 280 146 116 60 290
213 204 218 232 194 191 173 143 154 204 122 169 171 166 202 155 136 172 163 172 171 155 201 175 181 127 139 91 34 252 145 291 299 286 237 323 244 237 290 289 257 277 283 315 290
220 206 211 207 218 181 165 138 183 202 204 81 112 175 182 138 185 182 158 197 227 269 355 199 204 149 190 193 171 197 187 173 208 204 268 330 245 263 218 248 287 266 281 299 298
259 214 210 205 193 208 181 165 215 187 208 136 142 175 197 156 97 157 234 220 202 191 201 198 230 115 145 90 138 180 220 249 337 19 33 234 273 292 199 234 286 290 296 306 328
292 227 213 204 201 184 206 218 202 224 34 155 199 195 183 179 184 182 185 203 221 207 213 234 271 353 60 65 305 182 203 108 252 205 250 263 293 247 339 241 244 214 84 17 330
253 229 225 195 194 204 202 211 214 236 206 193 224 198 220 200 183 188 259 104 330 102 206 174 219 31 103 204 175 144 226 217 170 185 184 272 255 270 164 77 99 69 58 36 22
175 227 209 175 181 198 202 217 274 247 173 269 30 276 210 170 181 197 220 84 46 82 152 275 301 220 199 120 42 261 221 193 172 226 241 171 266 70 101 111 98 90 325 319 326
199 237 231 172 200 213 209 231 237 223 216 202 226 235 272 179 187 218 186 180 159 142 166 333 334 63 330 118 55 225 215 235 270 36 212 166 259 146 67 81 86 331 326 22 2
181 199 181 202 246 236 204 218 216 222 241 236 249 238 236 230 212 201 213 146 170 142 147 120 159 219 226 106 49 149 193 237 202 230 249 245 268 272 292 315 324 319 316 314 312
201 237 196 192 232 228 252 200 212 205 212 211 239 231 226 225 224 219 211 123 147 147 139 130 200 210 249 281 293 275 281 297 283 277 264 268 268 276 281 283 287 288 304 306 301
191 202 240 317 220 193 220 231 223 210 168 220 236 211 232 241 223 207 226 215 212 124 151 150 226 205 255 245 248 263 259 243 240 248 245 251 255 258 273 277 278 280 297 300 304
213 203 213 227 233 196 212 210 233 225 226 209 216 228 256 272 28 80 80 83 103 130 171 173 148 160 257 210 238 256 241 238 244 242 238 247 259 279 290 285 284 298 304 299 299